When you browse on this site, cookies collect data to enhance your experience and personalize the content and advertising you see.
Visit our Privacy Policy to learn more. By continuing to use the site, you agree to this use of cookies and data.
  • în România
  • Lista ţărilor
  • Pe 7 zile
  • Temperatura apei
  • Meteo pe hartă
  • Widget-uri
  • user-avatar
    Intrare

    Meteo pe oră la Moyomamba

    Astăzi, 28 Mai, Joi

    Timp Temperatura Precipitaţii Vânt Presiune Umiditate
    00:00 +17°C° 0 mm 0 m/s 682 mmHg 84%
    01:00 +17°C° 0 mm 0 m/s 682 mmHg 85%
    02:00 +16°C° 0 mm 0 m/s 682 mmHg 86%
    03:00 +16°C° 0 mm 0 m/s 682 mmHg 86%
    04:00 +16°C° 0 mm 0 m/s 682 mmHg 86%
    05:00 +16°C° 0 mm 0 m/s 682 mmHg 85%
    06:00 +16°C° 0 mm 0 m/s 682 mmHg 84%
    07:00 +17°C° 0 mm 0 m/s 683 mmHg 82%
    08:00 +20°C° 0 mm 0 m/s 683 mmHg 73%
    09:00 +22°C° 0 mm 0 m/s 684 mmHg 64%
    10:00 +25°C° 0 mm 0 m/s 685 mmHg 55%
    11:00 +29°C° 0 mm 1 m/s 684 mmHg 51%
    12:00 +30°C° 0 mm 1 m/s 683 mmHg 46%
    13:00 +31°C° 0 mm 1 m/s 682 mmHg 41%
    14:00 +31°C° 0 mm 1 m/s 682 mmHg 44%
    15:00 +30°C° 0 mm 1 m/s 681 mmHg 47%
    16:00 +29°C° 0 mm 1 m/s 680 mmHg 50%
    17:00 +27°C° 0 mm 1 m/s 680 mmHg 62%
    18:00 +24°C° 0 mm 1 m/s 680 mmHg 73%
    19:00 +22°C° 0 mm 1 m/s 680 mmHg 85%
    20:00 +20°C° 0 mm 0 m/s 680 mmHg 85%
    21:00 +19°C° 0 mm 0 m/s 681 mmHg 85%
    22:00 +19°C° 0 mm 0 m/s 682 mmHg 85%
    23:00 +19°C° 0 mm 0 m/s 682 mmHg 85%

    Mâine, 29 Mai, Vineri

    Timp Temperatura Precipitaţii Vânt Presiune Umiditate
    00:00 +18°C° 0 mm 0 m/s 682 mmHg 85%
    01:00 +18°C° 0 mm 0 m/s 682 mmHg 85%
    02:00 +18°C° 0 mm 0 m/s 681 mmHg 85%
    03:00 +18°C° 0 mm 0 m/s 681 mmHg 86%
    04:00 +18°C° 0 mm 0 m/s 681 mmHg 86%
    05:00 +18°C° 0 mm 0 m/s 682 mmHg 86%
    06:00 +18°C° 0 mm 0 m/s 682 mmHg 85%
    07:00 +18°C° 0 mm 0 m/s 682 mmHg 85%
    08:00 +21°C° 0 mm 0 m/s 683 mmHg 75%
    09:00 +24°C° 0 mm 0 m/s 684 mmHg 64%
    10:00 +29°C° 0 mm 1 m/s 684 mmHg 54%
    11:00 +29°C° 0 mm 1 m/s 684 mmHg 52%
    12:00 +30°C° 0 mm 1 m/s 683 mmHg 50%
    13:00 +31°C° 0 mm 1 m/s 682 mmHg 49%
    14:00 +30°C° 0.1 mm 1 m/s 681 mmHg 54%
    15:00 +29°C° 0.1 mm 1 m/s 681 mmHg 59%
    16:00 +28°C° 0.1 mm 1 m/s 680 mmHg 64%
    17:00 +26°C° 0.1 mm 1 m/s 680 mmHg 72%
    18:00 +24°C° 0.1 mm 1 m/s 680 mmHg 79%
    19:00 +20°C° 0.1 mm 0 m/s 680 mmHg 87%
    20:00 +21°C° 0.1 mm 0 m/s 681 mmHg 86%
    21:00 +21°C° 0.1 mm 0 m/s 682 mmHg 85%
    22:00 +21°C° 0.1 mm 0 m/s 683 mmHg 84%
    23:00 +20°C° 0 mm 0 m/s 682 mmHg 85%

    Poimâine, 30 Mai, Sâmbătă

    Timp Temperatura Precipitaţii Vânt Presiune Umiditate
    00:00 +20°C° 0 mm 0 m/s 682 mmHg 87%
    01:00 +19°C° 0 mm 0 m/s 682 mmHg 88%
    02:00 +19°C° 0 mm 0 m/s 682 mmHg 89%
    03:00 +19°C° 0 mm 0 m/s 681 mmHg 89%
    04:00 +18°C° 0 mm 0 m/s 681 mmHg 90%
    05:00 +18°C° 0 mm 0 m/s 682 mmHg 89%
    06:00 +19°C° 0 mm 0 m/s 682 mmHg 89%
    07:00 +19°C° 0 mm 0 m/s 683 mmHg 88%
    08:00 +21°C° 0 mm 0 m/s 683 mmHg 79%
    09:00 +24°C° 0 mm 0 m/s 684 mmHg 69%
    10:00 +26°C° 0 mm 0 m/s 684 mmHg 60%
    11:00 +29°C° 0 mm 1 m/s 684 mmHg 57%
    12:00 +29°C° 0 mm 1 m/s 683 mmHg 55%
    13:00 +30°C° 0 mm 1 m/s 682 mmHg 53%
    14:00 +29°C° 0.2 mm 1 m/s 682 mmHg 59%
    15:00 +28°C° 0.2 mm 1 m/s 681 mmHg 66%
    16:00 +27°C° 0.2 mm 1 m/s 680 mmHg 72%
    17:00 +25°C° 0.2 mm 1 m/s 680 mmHg 80%
    18:00 +22°C° 0.2 mm 0 m/s 680 mmHg 88%
    19:00 +20°C° 0.2 mm 0 m/s 681 mmHg 97%
    20:00 +20°C° 0 mm 0 m/s 681 mmHg 97%
    21:00 +20°C° 0 mm 0 m/s 682 mmHg 97%
    22:00 +19°C° 0 mm 0 m/s 682 mmHg 97%
    23:00 +19°C° 0 mm 0 m/s 682 mmHg 97%

    31 Mai, Duminică

    Timp Temperatura Precipitaţii Vânt Presiune Umiditate
    00:00 +19°C° 0 mm 0 m/s 682 mmHg 97%
    01:00 +19°C° 0 mm 0 m/s 682 mmHg 97%
    02:00 +19°C° 0.2 mm 0 m/s 682 mmHg 97%
    03:00 +19°C° 0.2 mm 0 m/s 682 mmHg 97%
    04:00 +19°C° 0.2 mm 0 m/s 681 mmHg 97%
    05:00 +19°C° 0.7 mm 0 m/s 682 mmHg 97%
    06:00 +19°C° 0.7 mm 0 m/s 682 mmHg 97%
    07:00 +19°C° 0.7 mm 0 m/s 683 mmHg 97%
    08:00 +21°C° 0.3 mm 0 m/s 683 mmHg 93%
    09:00 +22°C° 0.3 mm 0 m/s 684 mmHg 89%
    10:00 +24°C° 0.3 mm 0 m/s 684 mmHg 85%
    11:00 +24°C° 1.3 mm 0 m/s 683 mmHg 84%
    12:00 +25°C° 1.3 mm 0 m/s 683 mmHg 83%
    13:00 +27°C° 1.3 mm 1 m/s 682 mmHg 82%
    14:00 +25°C° 1.3 mm 0 m/s 681 mmHg 84%
    15:00 +24°C° 1.3 mm 0 m/s 680 mmHg 87%
    16:00 +24°C° 1.3 mm 0 m/s 679 mmHg 89%
    17:00 +23°C° 0.2 mm 0 m/s 680 mmHg 92%
    18:00 +21°C° 0.2 mm 0 m/s 680 mmHg 95%
    19:00 +20°C° 0.2 mm 0 m/s 680 mmHg 98%
    20:00 +20°C° 0 mm 0 m/s 680 mmHg 98%
    21:00 +19°C° 0 mm 0 m/s 681 mmHg 98%
    22:00 +19°C° 0 mm 0 m/s 682 mmHg 98%
    23:00 +19°C° 0.2 mm 0 m/s 682 mmHg 98%

    1 Iunie, Luni

    Timp Temperatura Precipitaţii Vânt Presiune Umiditate
    00:00 +19°C° 0.2 mm 0 m/s 681 mmHg 98%
    01:00 +18°C° 0.2 mm 0 m/s 681 mmHg 98%
    02:00 +18°C° 0.1 mm 0 m/s 681 mmHg 98%
    03:00 +18°C° 0.1 mm 0 m/s 681 mmHg 97%
    04:00 +18°C° 0.1 mm 0 m/s 681 mmHg 97%
    05:00 +18°C° 0 mm 0 m/s 681 mmHg 97%
    06:00 +19°C° 0 mm 0 m/s 682 mmHg 97%
    07:00 +19°C° 0 mm 0 m/s 682 mmHg 97%
    08:00 +21°C° 0.2 mm 0 m/s 683 mmHg 92%
    09:00 +22°C° 0.2 mm 0 m/s 683 mmHg 86%
    10:00 +24°C° 0.2 mm 0 m/s 684 mmHg 81%
    11:00 +25°C° 0.7 mm 0 m/s 683 mmHg 79%
    12:00 +27°C° 0.7 mm 1 m/s 682 mmHg 77%
    13:00 +28°C° 0.7 mm 1 m/s 682 mmHg 74%
    14:00 +27°C° 1 mm 1 m/s 681 mmHg 79%
    15:00 +27°C° 1 mm 1 m/s 680 mmHg 84%
    16:00 +26°C° 1 mm 1 m/s 680 mmHg 89%
    17:00 +23°C° 0.4 mm 0 m/s 680 mmHg 92%
    18:00 +21°C° 0.4 mm 0 m/s 680 mmHg 94%
    19:00 +20°C° 0.4 mm 0 m/s 680 mmHg 97%
    20:00 +20°C° 0 mm 0 m/s 681 mmHg 97%
    21:00 +19°C° 0 mm 0 m/s 681 mmHg 97%
    22:00 +19°C° 0 mm 0 m/s 682 mmHg 97%
    23:00 +19°C° 0 mm 0 m/s 682 mmHg 97%

    2 Iunie, Marţi

    Timp Temperatura Precipitaţii Vânt Presiune Umiditate
    00:00 +19°C° 0 mm 0 m/s 681 mmHg 97%
    01:00 +19°C° 0 mm 0 m/s 681 mmHg 97%
    02:00 +18°C° 0 mm 0 m/s 681 mmHg 97%
    03:00 +18°C° 0 mm 0 m/s 681 mmHg 97%
    04:00 +18°C° 0 mm 0 m/s 680 mmHg 97%
    05:00 +19°C° 0 mm 0 m/s 681 mmHg 96%
    06:00 +19°C° 0 mm 0 m/s 681 mmHg 96%
    07:00 +19°C° 0 mm 0 m/s 682 mmHg 96%
    08:00 +20°C° 0.3 mm 0 m/s 682 mmHg 94%
    09:00 +21°C° 0.3 mm 0 m/s 683 mmHg 93%
    10:00 +22°C° 0.3 mm 0 m/s 683 mmHg 91%
    11:00 +25°C° 0.5 mm 1 m/s 682 mmHg 85%
    12:00 +26°C° 0.5 mm 1 m/s 682 mmHg 79%
    13:00 +27°C° 0.5 mm 1 m/s 681 mmHg 74%
    14:00 +27°C° 0.5 mm 1 m/s 681 mmHg 74%
    15:00 +27°C° 0.5 mm 1 m/s 680 mmHg 75%
    16:00 +27°C° 0.5 mm 1 m/s 679 mmHg 75%
    17:00 +25°C° 0.2 mm 1 m/s 680 mmHg 82%
    18:00 +24°C° 0.2 mm 1 m/s 680 mmHg 90%
    19:00 +20°C° 0.2 mm 0 m/s 680 mmHg 97%
    20:00 +20°C° 0 mm 0 m/s 680 mmHg 97%
    21:00 +19°C° 0 mm 0 m/s 681 mmHg 97%
    22:00 +19°C° 0 mm 0 m/s 681 mmHg 97%
    23:00 +19°C° 0.2 mm 0 m/s 681 mmHg 97%
    Arată mai mult